Weather History for KPSC - August, 2013

Change the Weather History Date:

Thursday, August 1, 2013

  Actual Average Record
Temperature  
Mean Temperature 70 °F 75 °F  
Max Temperature 83 °F 93 °F 109 °F (2009)
Min Temperature 57 °F 58 °F 45 °F (2002)
Degree Days  
Heating Degree Days 0 0  
Month to date heating degree days 0 0  
Since 1 June heating degree days 19 37  
Since 1 July heating degree days 0 5  
Cooling Degree Days 5 10  
Month to date cooling degree days 5 10  
Year to date cooling degree days 546 420  
Since 1 June cooling degree days 500 387  
Growing Degree Days 20 (Base 50)    
Moisture  
Dew Point 55 °F    
Average Humidity 62    
Maximum Humidity 87    
Minimum Humidity 36    
Precipitation  
Precipitation T in 0.00 in 0.30 in (1998)
Month to date precipitation T 0.00  
Year to date precipitation 2.94 5.21  
Snow  
Snow 0.00 in - - ()
Snow Depth 0.00 in    
Sea Level Pressure  
Sea Level Pressure 29.87 in    
Wind  
Wind Speed 6 mph (South)    
Max Wind Speed 22 mph    
Max Gust Speed 25 mph    
Visibility 10 miles    
Events      
T = Trace of Precipitation, MM = Missing Value Source: NWS Daily Summary

Daily Weather History Graph

Daily Weather History Graph

Search for Another Location

Airport or City:

Trip Planner

Search our weather history database for the weather conditions in past years. The results will help you decide how hot, cold, wet, or windy it might be!

Date:

Astronomy

Aug. 01, 2013 Rise Set
Actual Time 5:38 AM PDT 8:26 PM PDT
Civil Twilight 5:03 AM PDT 9:00 PM PDT
Nautical Twilight 4:19 AM PDT 9:44 PM PDT
Astronomical Twilight 3:27 AM PDT 10:36 PM PDT
Moon 1:16 AM PDT (8/1) 4:41 PM PDT (8/1)
Length of Visible Light 15h 57m
Length of Day
14h 47m
Waning Crescent, 22% of the Moon is Illuminated
Aug 1
Waning Crescent
Aug 6
New
Aug 14
First Quarter
Aug 20
Full
Aug 28
Last Quarter

Hourly Weather History & Observations

Time (PDT) Temp. Heat Index Dew Point Humidity Pressure Visibility Wind Dir Wind Speed Gust Speed Precip Events Conditions
12:53 AM 62.1 °F - 55.9 °F 80% 29.88 in 10.0 mi Calm Calm - N/A   Clear
1:53 AM 61.0 °F - 55.9 °F 83% 29.87 in 10.0 mi East 4.6 mph - N/A   Clear
2:53 AM 59.0 °F - 55.9 °F 90% 29.86 in 10.0 mi NW 6.9 mph - N/A   Clear
3:53 AM 59.0 °F - 55.0 °F 87% 29.87 in 10.0 mi Calm Calm - N/A   Clear
4:53 AM 61.0 °F - 54.0 °F 78% 29.88 in 10.0 mi Calm Calm - N/A   Clear
5:53 AM 59.0 °F - 55.0 °F 87% 29.86 in 10.0 mi Calm Calm - N/A   Clear
6:53 AM 63.0 °F - 55.0 °F 75% 29.85 in 10.0 mi NE 10.4 mph - N/A   Scattered Clouds
7:53 AM 66.0 °F - 57.9 °F 75% 29.88 in 10.0 mi Calm Calm - 0.00 in   Clear
8:53 AM 70.0 °F - 57.9 °F 65% 29.89 in 10.0 mi South 5.8 mph - N/A   Clear
9:53 AM 70.0 °F - 55.9 °F 61% 29.88 in 10.0 mi Calm Calm - N/A   Clear
10:53 AM 71.1 °F - 55.0 °F 57% 29.89 in 10.0 mi SE 5.8 mph - N/A   Clear
11:19 AM 71.6 °F - 55.4 °F 57% 29.89 in 10.0 mi SSW 13.8 mph - N/A   Partly Cloudy
11:53 AM 73.0 °F - 55.9 °F 55% 29.89 in 10.0 mi South 11.5 mph - N/A   Clear
12:53 PM 73.0 °F - 57.9 °F 59% 29.88 in 10.0 mi ESE 8.1 mph - N/A   Clear
1:53 PM 80.1 °F 80.4 °F 57.0 °F 45% 29.88 in 10.0 mi SE 9.2 mph 20.7 mph N/A   Clear
2:42 PM 82.4 °F 81.7 °F 55.4 °F 39% 29.87 in 10.0 mi South 18.4 mph - N/A   Partly Cloudy
2:53 PM 81.0 °F 80.7 °F 55.0 °F 41% 29.87 in 10.0 mi SSW 18.4 mph - N/A   Scattered Clouds
3:53 PM 81.0 °F 80.5 °F 54.0 °F 39% 29.85 in 10.0 mi SW 11.5 mph - N/A   Clear
4:53 PM 81.0 °F - 51.1 °F 35% 29.83 in 10.0 mi SW 11.5 mph - N/A   Partly Cloudy
5:53 PM 82.0 °F 81.2 °F 53.1 °F 37% 29.83 in 10.0 mi SSE 9.2 mph - N/A   Mostly Cloudy
6:53 PM 80.1 °F 80.0 °F 54.0 °F 40% 29.82 in 10.0 mi SE 13.8 mph - N/A   Clear
7:53 PM 78.1 °F - 55.0 °F 45% 29.83 in 10.0 mi South 9.2 mph - N/A   Mostly Cloudy
8:53 PM 73.9 °F - 57.0 °F 55% 29.83 in 10.0 mi WNW 9.2 mph - N/A   Clear
9:53 PM 70.0 °F - 57.0 °F 63% 29.87 in 10.0 mi NNW 9.2 mph - N/A   Clear
10:53 PM 68.0 °F - 55.0 °F 63% 29.89 in 10.0 mi NW 11.5 mph - N/A   Clear
11:53 PM 66.9 °F - 55.9 °F 68% 29.91 in 10.0 mi NW 8.1 mph - N/A   Clear